Regional Weather Roundup
Issued by NWS

Home | Current Version | Previous Version | Text Only | Print | Product List | Glossary Off
Versions: 1 2 3 4 5 6 7 8 9 10 11 12 13 14 15 16 17 18 19 20 21 22 23 24 25 26 27 28 29 30 31 32 33 34 35 36 37 38 39 40 41 42 43 44 45 46 47 48 49 50

000
ASUS43 KTOP 252159
RWRKS

WEATHER ROUNDUP FOR KANSAS
NATIONAL WEATHER SERVICE GOODLAND KS
500 PM CDT TUE JUL 25 2017

NOTE:  "FAIR" INDICATES FEW OR NO CLOUDS BELOW 12,000 FEET WITH NO
SIGNIFICANT WEATHER AND/OR OBSTRUCTIONS TO VISIBILITY.

KSZ001>006-013>018-027>032-041>047-252300-
NORTHWEST KANSAS

CITY           SKY/WX    TMP DP  RH WIND       PRES   REMARKS
GOODLAND       MOSUNNY   97  63  32 S18G26    29.95F HX  98
HAYS           PTSUNNY  100  68  35 S22G29    29.93F HX 105
HILL CITY      MOSUNNY  101  66  31 S16G25    29.92F HX 105
RUSSELL        SUNNY     98  66  34 S18G25    29.93F HX 101
$$

KSZ061>065-074>080-084>089-252300-
SOUTHWEST KANSAS

CITY           SKY/WX    TMP DP  RH WIND       PRES   REMARKS
DODGE CITY     MOSUNNY   98  62  30 S18G28    29.97F HX  99
ELKHART          N/A     97  56  25 S14         N/A  HX  95
GARDEN CITY    SUNNY     99  62  29 S17G31    29.96F HX 100
LIBERAL        MOSUNNY   98  62  30 S22G28    29.97F HX  99
$$

KSZ066>073-081>083-090>101-252300-
SOUTHEAST KANSAS

CITY           SKY/WX    TMP DP  RH WIND       PRES   REMARKS
CHANUTE        MOSUNNY   96  70  42 S12       30.03F HX 102
COFFEYVILLE    MOSUNNY   94  72  48 S8        30.02F HX 102
HUTCHINSON     SUNNY    100  61  27 S13G25    29.96F HX 101
MEDICINE LODGE   N/A     99  65  32 S13G23    29.95F HX 102
NEWTON         SUNNY     96  67  38 SE12      30.00F HX 100
PARSONS        SUNNY     94  70  45 S6        30.04F HX 100
WICHITA INTL   MOSUNNY   98  67  36 SE16G25   29.97F HX 102
WICHITA JABRA  SUNNY     97  66  36 SE14G25   29.99F HX 100
WINFIELD       SUNNY     97  67  37 S17       30.00F HX 101
$$

KSZ007>012-019>026-033>040-048>060-102>105-252300-
NORTHEAST KANSAS

CITY           SKY/WX    TMP DP  RH WIND       PRES   REMARKS
CONCORDIA      SUNNY     96  66  37 SE15      29.96F HX  99
EMPORIA        SUNNY     94  70  45 SE17      30.02F HX 100
LAWRENCE       SUNNY     94  72  48 SE8       30.01F HX 102
MANHATTAN      MOSUNNY   97  69  40 S14G23    29.97F HX 103
OLATHE IND     MOSUNNY   92  72  51 S9        30.04F HX  99
OLATHE EXE     SUNNY     90  74  59 S10       30.04F HX  99
SALINA         SUNNY    100  60  26 S15G24    29.96F HX 100
TOPEKA BILLARD SUNNY     94  72  48 S9        30.00F HX 102
TOPEKA FORBES  SUNNY     94  72  48 S10       30.02F HX 102
$$



USA.gov is the U.S. government's official web portal to all federal, state and local government web resources and services.